TimeCDT,TemperatureF,Dew PointF,Humidity,Sea Level PressureIn,VisibilityMPH,Wind Direction,Wind SpeedMPH,Gust SpeedMPH,PrecipitationIn,Events,Conditions,WindDirDegrees,DateUTC
12:15 AM,47.7,44.6,89,29.78,10.0,West,6.9,-,N/A,,Light Drizzle,270,2013-10-18 05:15:00
12:35 AM,47.3,44.6,90,29.78,7.0,WSW,6.9,-,N/A,,Light Drizzle,240,2013-10-18 05:35:00
12:55 AM,46.9,44.6,92,29.78,7.0,WSW,8.1,-,N/A,,Light Drizzle,240,2013-10-18 05:55:00
1:15 AM,47.1,45.0,92,29.78,7.0,West,6.9,-,N/A,,Light Drizzle,260,2013-10-18 06:15:00
1:35 AM,47.1,44.8,92,29.78,10.0,WNW,10.4,-,N/A,,Drizzle,290,2013-10-18 06:35:00
1:55 AM,46.6,44.6,93,29.78,7.0,West,8.1,-,N/A,Rain,Rain,280,2013-10-18 06:55:00
2:15 AM,46.6,44.8,93,29.78,7.0,West,6.9,-,0.01,Rain,Rain,280,2013-10-18 07:15:00
2:35 AM,46.4,44.6,93,29.79,7.0,WNW,8.1,-,0.01,,Light Drizzle,290,2013-10-18 07:35:00
2:55 AM,46.4,44.6,93,29.79,5.0,West,9.2,-,0.01,Rain,Light Rain,280,2013-10-18 07:55:00
3:15 AM,45.5,43.7,93,29.79,10.0,WNW,10.4,16.1,N/A,,Light Drizzle,290,2013-10-18 08:15:00
3:35 AM,45.0,43.0,93,29.79,10.0,West,9.2,-,0.01,,Drizzle,280,2013-10-18 08:35:00
3:55 AM,44.6,42.8,93,29.80,10.0,WNW,8.1,-,0.01,,Light Drizzle,300,2013-10-18 08:55:00
4:15 AM,43.7,41.4,91,29.80,10.0,WNW,13.8,-,N/A,,Drizzle,300,2013-10-18 09:15:00
4:35 AM,43.2,41.2,93,29.81,10.0,WNW,9.2,17.3,N/A,Rain,Light Rain,300,2013-10-18 09:35:00
4:55 AM,42.3,40.1,92,29.81,7.0,WNW,12.7,-,N/A,,Light Drizzle,300,2013-10-18 09:55:00
5:15 AM,41.7,39.2,91,29.82,10.0,WNW,16.1,-,N/A,Rain,Light Rain,300,2013-10-18 10:15:00
5:35 AM,41.0,38.3,90,29.83,10.0,WNW,12.7,20.7,N/A,,Drizzle,300,2013-10-18 10:35:00
5:55 AM,40.3,37.8,91,29.84,10.0,WNW,9.2,17.3,0.01,Rain,Rain,300,2013-10-18 10:55:00
6:15 AM,40.1,37.8,91,29.84,10.0,NW,13.8,18.4,N/A,,Drizzle,310,2013-10-18 11:15:00
6:35 AM,40.3,37.9,91,29.85,10.0,WNW,9.2,-,N/A,,Light Drizzle,300,2013-10-18 11:35:00
6:55 AM,40.3,37.9,91,29.86,10.0,WNW,9.2,17.3,N/A,,Light Drizzle,300,2013-10-18 11:55:00
7:15 AM,40.1,37.6,91,29.86,10.0,WNW,11.5,18.4,0.01,Rain,Light Rain,300,2013-10-18 12:15:00
7:35 AM,39.6,37.0,91,29.88,10.0,WNW,11.5,19.6,0.01,Rain,Rain,300,2013-10-18 12:35:00
7:55 AM,39.6,37.4,92,29.89,10.0,WNW,9.2,-,0.01,Rain,Rain,300,2013-10-18 12:55:00
8:15 AM,40.1,37.8,91,29.90,10.0,West,11.5,-,N/A,Rain,Light Rain,280,2013-10-18 13:15:00
8:35 AM,40.1,37.8,91,29.91,10.0,West,11.5,-,N/A,,Drizzle,280,2013-10-18 13:35:00
8:55 AM,40.3,38.1,92,29.91,10.0,WNW,10.4,-,0.01,,Drizzle,290,2013-10-18 13:55:00
9:15 AM,40.6,38.5,92,29.92,5.0,WNW,8.1,-,N/A,,Light Drizzle,290,2013-10-18 14:15:00
9:35 AM,41.5,39.2,91,29.93,10.0,WNW,9.2,-,N/A,,Overcast,290,2013-10-18 14:35:00
9:55 AM,42.1,39.4,90,29.93,10.0,West,11.5,-,N/A,,Overcast,280,2013-10-18 14:55:00
10:15 AM,43.3,39.7,87,29.93,10.0,WNW,13.8,-,N/A,,Mostly Cloudy,300,2013-10-18 15:15:00
10:35 AM,43.7,37.9,80,29.93,10.0,NW,12.7,-,N/A,,Mostly Cloudy,310,2013-10-18 15:35:00
10:55 AM,45.0,38.3,77,29.93,10.0,WNW,10.4,-,N/A,,Mostly Cloudy,290,2013-10-18 15:55:00
11:15 AM,45.0,37.0,74,29.94,10.0,NW,10.4,18.4,N/A,,Mostly Cloudy,310,2013-10-18 16:15:00
11:35 AM,46.8,35.6,65,29.93,10.0,WNW,15.0,18.4,N/A,,Mostly Cloudy,300,2013-10-18 16:35:00
11:55 AM,47.1,34.5,62,29.93,10.0,NW,15.0,18.4,N/A,,Mostly Cloudy,310,2013-10-18 16:55:00
12:15 PM,48.7,32.5,54,29.93,10.0,NW,12.7,-,N/A,,Mostly Cloudy,320,2013-10-18 17:15:00
12:35 PM,48.0,32.7,55,29.93,10.0,NW,11.5,-,N/A,,Mostly Cloudy,310,2013-10-18 17:35:00
12:55 PM,48.4,31.5,52,29.92,10.0,NNW,12.7,-,N/A,,Mostly Cloudy,330,2013-10-18 17:55:00
1:15 PM,50.0,30.4,47,29.93,10.0,WNW,11.5,17.3,N/A,,Mostly Cloudy,300,2013-10-18 18:15:00
1:35 PM,51.4,29.5,43,29.93,10.0,West,10.4,17.3,N/A,,Scattered Clouds,270,2013-10-18 18:35:00
1:55 PM,49.1,28.6,45,29.92,10.0,WNW,11.5,-,N/A,,Scattered Clouds,300,2013-10-18 18:55:00
2:15 PM,51.1,28.0,41,29.91,10.0,WNW,11.5,-,N/A,,Scattered Clouds,290,2013-10-18 19:15:00
2:35 PM,52.0,27.7,39,29.90,10.0,WNW,12.7,16.1,N/A,,Scattered Clouds,300,2013-10-18 19:35:00
2:55 PM,52.0,27.1,38,29.90,10.0,WNW,10.4,-,N/A,,Mostly Cloudy,300,2013-10-18 19:55:00
3:15 PM,51.6,26.2,37,29.89,10.0,WNW,11.5,-,N/A,,Scattered Clouds,300,2013-10-18 20:15:00
3:35 PM,50.2,27.3,41,29.90,10.0,West,4.6,-,N/A,,Scattered Clouds,260,2013-10-18 20:35:00
3:55 PM,50.0,27.0,41,29.91,10.0,West,6.9,-,N/A,,Mostly Cloudy,270,2013-10-18 20:55:00
4:15 PM,50.5,27.0,40,29.91,10.0,West,4.6,-,N/A,,Mostly Cloudy,280,2013-10-18 21:15:00
4:35 PM,50.0,26.4,40,29.90,10.0,West,8.1,-,N/A,,Overcast,280,2013-10-18 21:35:00
4:55 PM,50.2,28.2,43,29.90,10.0,WNW,4.6,-,N/A,,Mostly Cloudy,300,2013-10-18 21:55:00
5:15 PM,50.2,27.0,41,29.89,10.0,West,6.9,-,N/A,,Scattered Clouds,270,2013-10-18 22:15:00
5:35 PM,49.3,27.1,42,29.90,10.0,West,9.2,-,N/A,,Clear,270,2013-10-18 22:35:00
5:55 PM,48.6,27.1,43,29.89,10.0,West,6.9,-,N/A,,Clear,270,2013-10-18 22:55:00
6:15 PM,46.9,27.9,48,29.90,10.0,West,5.8,-,N/A,,Clear,260,2013-10-18 23:15:00
6:35 PM,46.0,28.2,50,29.90,10.0,WSW,3.5,-,N/A,,Clear,240,2013-10-18 23:35:00
6:55 PM,45.0,29.1,54,29.90,10.0,SW,3.5,-,N/A,,Clear,220,2013-10-18 23:55:00
7:15 PM,43.9,28.2,54,29.90,10.0,SW,3.5,-,N/A,,Clear,220,2013-10-19 00:15:00
7:35 PM,43.7,28.4,55,29.90,10.0,SW,3.5,-,N/A,,Clear,230,2013-10-19 00:35:00
7:55 PM,42.8,29.3,59,29.90,10.0,SW,3.5,-,N/A,,Scattered Clouds,220,2013-10-19 00:55:00
8:15 PM,42.3,29.8,61,29.90,10.0,Calm,Calm,-,N/A,,Mostly Cloudy,0,2013-10-19 01:15:00
8:35 PM,40.8,31.8,70,29.90,10.0,Calm,Calm,-,N/A,,Overcast,0,2013-10-19 01:35:00
8:55 PM,40.6,31.8,71,29.89,10.0,Calm,Calm,-,N/A,,Overcast,0,2013-10-19 01:55:00
9:15 PM,40.6,31.1,69,29.89,10.0,Calm,Calm,-,N/A,,Scattered Clouds,0,2013-10-19 02:15:00
9:35 PM,39.2,31.1,73,29.89,10.0,Calm,Calm,-,N/A,,Clear,0,2013-10-19 02:35:00
9:55 PM,38.7,31.5,75,29.88,10.0,Calm,Calm,-,N/A,,Clear,0,2013-10-19 02:55:00
10:15 PM,37.4,31.5,79,29.88,10.0,Calm,Calm,-,N/A,,Mostly Cloudy,0,2013-10-19 03:15:00
10:35 PM,37.9,31.1,76,29.87,10.0,Calm,Calm,-,N/A,,Mostly Cloudy,0,2013-10-19 03:35:00
10:55 PM,37.9,31.5,77,29.87,10.0,Calm,Calm,-,N/A,,Overcast,0,2013-10-19 03:55:00
11:15 PM,38.5,31.8,77,29.86,10.0,Calm,Calm,-,N/A,,Overcast,0,2013-10-19 04:15:00
11:35 PM,38.3,32.0,78,29.86,10.0,Calm,Calm,-,N/A,,Overcast,0,2013-10-19 04:35:00
11:55 PM,39.2,31.1,73,29.85,10.0,SSE,3.5,-,N/A,,Mostly Cloudy,160,2013-10-19 04:55:00